Nampa, ID

1:10 PM MST on February 08, 2016 (GMT -0700)
Nampa

Weather History for KMAN - November, 2011

Change the Weather History Date:

Sunday, November 20, 2011

  Actual Average (KBOI) Record (KBOI)
Temperature  
Mean Temperature 30 °F 38 °F  
Max Temperature 39 °F 46 °F 67 °F (1966)
Min Temperature 21 °F 31 °F 11 °F (1977)
Degree Days  
Heating Degree Days 35 27  
Month to date heating degree days 457  
Since 1 July heating degree days 963  
Cooling Degree Days 0 0  
Month to date cooling degree days 0  
Year to date cooling degree days 942  
Moisture  
Dew Point 20 °F    
Average Humidity 69    
Maximum Humidity 86    
Minimum Humidity 45    
Precipitation  
Precipitation 0.00 in 0.04 in 0.84 in (1921)
Month to date precipitation 0.86  
Year to date precipitation 9.69  
Snow  
Snow 0.00 in 0.10 in 1.90 in (1961)
Month to date snowfall 1.2  
Since 1 July snowfall 1.3  
Snow Depth -    
Sea Level Pressure  
Sea Level Pressure 29.96 in    
Wind  
Wind Speed 6 mph (SE)    
Max Wind Speed 10 mph    
Max Gust Speed 16 mph    
Visibility 10 miles    
Events      
T = Trace of Precipitation, MM = Missing Value Source: NWS Daily Summary

Daily Weather History Graph

Daily Weather History Graph

Search for Another Location

Airport or City:

Trip Planner

Search our weather history database for the weather conditions in past years. The results will help you decide how hot, cold, wet, or windy it might be!

Date:

Astronomy

Nov. 20, 2011 Rise Set
Actual Time 7:46 AM MST 5:16 PM MST
Civil Twilight 7:14 AM MST 5:48 PM MST
Nautical Twilight 6:39 AM MST 6:23 PM MST
Astronomical Twilight 6:05 AM MST 6:57 PM MST
Moon 2:10 AM MST (11/20) 2:15 PM MST (11/20)
Length of Visible Light 10h 33m
Length of Day
9h 30m
Waning Crescent, 26% of the Moon is Illuminated
Nov 20
Waning Crescent
Nov 24
New
Dec 2
First Quarter
Dec 10
Full
Dec 17
Last Quarter

Hourly Weather History & Observations

Time (MST) Temp. Windchill Dew Point Humidity Pressure Visibility Wind Dir Wind Speed Gust Speed Precip Events Conditions
12:15 AM 26.6 °F 21.2 °F 19.4 °F 74% 29.91 in 10.0 mi South 4.6 mph - N/A   Clear
12:35 AM 24.8 °F 16.9 °F 19.4 °F 80% 29.91 in 10.0 mi South 6.9 mph - N/A   Clear
12:55 AM 24.8 °F 20.5 °F 19.4 °F 80% 29.91 in 10.0 mi SSE 3.5 mph - N/A   Clear
1:15 AM 24.8 °F 19.1 °F 19.4 °F 80% 29.91 in 10.0 mi SE 4.6 mph - N/A   Clear
1:35 AM 23.0 °F 17.0 °F 19.4 °F 86% 29.91 in 10.0 mi SSE 4.6 mph - N/A   Clear
1:55 AM 23.0 °F 14.7 °F 19.4 °F 86% 29.91 in 10.0 mi SE 6.9 mph - N/A   Clear
2:15 AM 24.8 °F 16.9 °F 19.4 °F 80% 29.91 in 10.0 mi SSE 6.9 mph - N/A   Clear
2:35 AM 23.0 °F 15.8 °F 17.6 °F 80% 29.91 in 10.0 mi SE 5.8 mph - N/A   Clear
2:55 AM 23.0 °F 14.7 °F 19.4 °F 86% 29.92 in 10.0 mi SE 6.9 mph - N/A   Clear
3:15 AM 24.8 °F 16.9 °F 19.4 °F 80% 29.92 in 10.0 mi SE 6.9 mph - N/A   Clear
3:35 AM 24.8 °F 16.9 °F 19.4 °F 80% 29.92 in 10.0 mi ESE 6.9 mph - N/A   Clear
3:55 AM 23.0 °F 14.7 °F 17.6 °F 80% 29.92 in 10.0 mi SE 6.9 mph - N/A   Clear
4:55 AM 21.2 °F 16.4 °F 17.6 °F 86% 29.92 in 10.0 mi SSE 3.5 mph - N/A   Clear
5:15 AM 23.0 °F 15.8 °F 17.6 °F 80% 29.92 in 10.0 mi SSE 5.8 mph - N/A   Clear
6:15 AM 23.0 °F 14.7 °F 17.6 °F 80% 29.94 in 10.0 mi SE 6.9 mph - N/A   Clear
6:35 AM 21.2 °F 12.6 °F 17.6 °F 86% 29.94 in 10.0 mi SE 6.9 mph - N/A   Clear
7:15 AM 23.0 °F 15.8 °F 17.6 °F 80% 29.95 in 10.0 mi ESE 5.8 mph - N/A   Clear
7:35 AM 23.0 °F 14.7 °F 15.8 °F 74% 29.95 in 10.0 mi SE 6.9 mph - N/A   Clear
7:55 AM 23.0 °F 12.4 °F 17.6 °F 80% 29.95 in 10.0 mi SE 10.4 mph - N/A   Clear
8:15 AM 24.8 °F 15.3 °F 17.6 °F 74% 29.95 in 10.0 mi SE 9.2 mph - N/A   Clear
8:35 AM 24.8 °F 14.6 °F 17.6 °F 74% 29.96 in 10.0 mi SE 10.4 mph - N/A   Clear
8:55 AM 24.8 °F 15.3 °F 17.6 °F 74% 29.97 in 10.0 mi SE 9.2 mph 16.1 mph N/A   Clear
9:15 AM 26.6 °F 17.5 °F 19.4 °F 74% 29.97 in 10.0 mi SE 9.2 mph - N/A   Clear
9:35 AM 28.4 °F 19.7 °F 19.4 °F 69% 29.97 in 10.0 mi SE 9.2 mph - N/A   Clear
9:55 AM 30.2 °F 21.9 °F 19.4 °F 64% 29.98 in 10.0 mi SE 9.2 mph - N/A   Clear
10:15 AM 32.0 °F 24.8 °F 21.2 °F 64% 29.98 in 10.0 mi SE 8.1 mph - N/A   Clear
10:35 AM 32.0 °F 24.8 °F 21.2 °F 64% 29.98 in 10.0 mi SE 8.1 mph - N/A   Clear
11:15 AM 33.8 °F 26.4 °F 17.6 °F 52% 29.98 in 10.0 mi South 9.2 mph - N/A   Clear
11:55 AM 35.6 °F 30.7 °F 19.4 °F 52% 29.98 in 10.0 mi SSE 5.8 mph - N/A   Clear
12:15 PM 35.6 °F 29.2 °F 19.4 °F 52% 29.98 in 10.0 mi SSE 8.1 mph - N/A   Clear
12:55 PM 37.4 °F 31.4 °F 19.4 °F 48% 29.97 in 10.0 mi South 8.1 mph - N/A   Clear
1:15 PM 35.6 °F 30.7 °F 19.4 °F 52% 29.97 in 10.0 mi SSE 5.8 mph - N/A   Clear
1:35 PM 35.6 °F 30.7 °F 17.6 °F 48% 29.96 in 10.0 mi SE 5.8 mph - N/A   Clear
1:55 PM 37.4 °F 32.1 °F 17.6 °F 45% 29.96 in 10.0 mi ESE 6.9 mph - N/A   Clear
2:15 PM 39.2 °F 35.0 °F 19.4 °F 45% 29.95 in 10.0 mi ESE 5.8 mph - N/A   Clear
2:35 PM 39.2 °F 35.0 °F 21.2 °F 49% 29.95 in 10.0 mi SE 5.8 mph - N/A   Clear
2:55 PM 39.2 °F 33.0 °F 21.2 °F 49% 29.95 in 10.0 mi East 9.2 mph - N/A   Clear
3:15 PM 39.2 °F 37.0 °F 19.4 °F 45% 29.95 in 10.0 mi NE 3.5 mph - N/A   Clear
3:35 PM 39.2 °F 35.9 °F 21.2 °F 49% 29.95 in 10.0 mi ENE 4.6 mph - N/A   Clear
3:55 PM 39.2 °F 34.2 °F 21.2 °F 49% 29.96 in 10.0 mi NNE 6.9 mph - N/A   Clear
4:15 PM 37.4 °F 32.1 °F 21.2 °F 52% 29.96 in 10.0 mi North 6.9 mph - N/A   Clear
4:35 PM 37.4 °F 32.8 °F 19.4 °F 48% 29.96 in 10.0 mi NNE 5.8 mph - N/A   Clear
5:15 PM 35.6 °F 32.8 °F 19.4 °F 52% 29.95 in 10.0 mi NE 3.5 mph - N/A   Clear
5:35 PM 33.8 °F - 19.4 °F 56% 29.95 in 10.0 mi Calm Calm - N/A   Clear
5:55 PM 35.6 °F - 19.4 °F 52% 29.95 in 10.0 mi Calm Calm - N/A   Clear
6:15 PM 32.0 °F - 21.2 °F 64% 29.95 in 10.0 mi Calm Calm - N/A   Clear
6:35 PM 32.0 °F - 23.0 °F 69% 29.96 in 10.0 mi Calm Calm - N/A   Clear
6:55 PM 30.2 °F - 21.2 °F 69% 29.97 in 10.0 mi Calm Calm - N/A   Clear
7:15 PM 30.2 °F - 23.0 °F 75% 29.98 in 10.0 mi Calm Calm - N/A   Partly Cloudy
7:35 PM 26.6 °F 22.6 °F 21.2 °F 80% 29.97 in 10.0 mi ESE 3.5 mph - N/A   Partly Cloudy
8:15 PM 28.4 °F - 21.2 °F 74% 29.98 in 10.0 mi Calm Calm - N/A   Clear
8:35 PM 26.6 °F - 21.2 °F 80% 29.99 in 10.0 mi Calm Calm - N/A   Scattered Clouds
8:55 PM 26.6 °F 21.2 °F 21.2 °F 80% 30.00 in 10.0 mi SSE 4.6 mph - N/A   Partly Cloudy
9:15 PM 24.8 °F - 21.2 °F 86% 30.00 in 10.0 mi Calm Calm - N/A   Clear
9:35 PM 24.8 °F 20.5 °F 21.2 °F 86% 30.00 in 10.0 mi SSE 3.5 mph - N/A   Clear
9:55 PM 24.8 °F - 21.2 °F 86% 30.01 in 10.0 mi Calm Calm - N/A   Partly Cloudy
10:15 PM 26.6 °F 22.6 °F 23.0 °F 86% 30.01 in 10.0 mi East 3.5 mph - N/A   Mostly Cloudy
10:35 PM 26.6 °F - 23.0 °F 86% 30.01 in 10.0 mi Calm Calm - N/A   Overcast
10:55 PM 28.4 °F - 24.8 °F 86% 30.02 in 10.0 mi Calm Calm - N/A   Overcast
11:15 PM 28.4 °F - 24.8 °F 86% 30.02 in 10.0 mi Calm Calm - N/A   Overcast
11:35 PM 28.4 °F 24.6 °F 24.8 °F 86% 30.01 in 10.0 mi SSE 3.5 mph - N/A   Overcast
11:55 PM 28.4 °F - 24.8 °F 86% 30.02 in 10.0 mi Calm Calm - N/A   Overcast